Overview Statistics Trail Chart Weather Telemetry Raw packets
 

This is the latest recevied weather packets stored in our database for station/object SV9TNF-57. If no packets are shown the sender has not sent any weather packets the latest 10 day(s).

<< 80 81 82 83 84 85 86 >>
Time Temp. Humidity Pressure Rain* Wind** Luminosity Snow
1788081135 27.78° C 57% 996.9 hPa 0 mm 9.39 m/s, 187° - -
1788080835 27.78° C 61% 997.3 hPa 0 mm 9.83 m/s, 153° - -
1788080535 27.78° C 61% 997.1 hPa 0 mm 12.07 m/s, 211° - -
1788080235 27.78° C 61% 996.8 hPa 0 mm 2.68 m/s, 213° - -
1788079935 28.33° C 59% 997 hPa 0 mm 5.36 m/s, 141° - -
1788079635 28.33° C 59% 996.7 hPa 0 mm 6.71 m/s, 172° - -
1788079334 27.78° C 60% 996.8 hPa 0 mm 0.89 m/s, 289° - -
1788079034 27.22° C 64% 996.8 hPa 0 mm 9.83 m/s, 179° - -
1788078734 27.78° C 63% 996.9 hPa 0 mm 4.47 m/s, 190° - -
1788078434 27.78° C 58% 996.8 hPa 0 mm 3.13 m/s, 161° - -
1788078139 27.22° C 63% 997.1 hPa 0 mm 4.47 m/s, 272° - -
1788077834 27.22° C 63% 997 hPa 0 mm 12.96 m/s, 183° - -
1788077534 27.78° C 57% 996.9 hPa 0 mm 1.79 m/s, 162° - -
1788077234 27.78° C 60% 997 hPa 0 mm 2.24 m/s, 220° - -
1788076934 28.33° C 59% 997.1 hPa 0 mm 6.26 m/s, 136° - -
1788076633 28.33° C 59% 996.9 hPa 0 mm 1.34 m/s, 239° - -
1788076334 28.33° C 57% 996.8 hPa 0 mm 2.68 m/s, 154° - -
1788076033 28.89° C 56% 996.9 hPa 0 mm 0 m/s - -
1788075733 29.44° C 43% 996.8 hPa 0 mm 0.45 m/s, 67° - -
1788075433 28.89° C 43% 996.6 hPa 0 mm 0 m/s - -
1788075133 29.44° C 41% 996.7 hPa 0 mm 0 m/s - -
1788074833 29.44° C 41% 996.6 hPa 0 mm 5.36 m/s, 110° - -
1788074533 29.44° C 39% 996.6 hPa 0 mm 0 m/s - -
1788074233 29.44° C 39% 996.5 hPa 0 mm 0.45 m/s, 196° - -
1788073932 29.44° C 41% 996.3 hPa 0 mm 0 m/s - -

* Rain latest hour (hover to see other rain measurements)
** Current wind speed in m/s (hover to see current wind gust speed)